COSMOS 397 DEB, 6844

Orbit data source: Space-Track

COSMOS 397 DEB, 6844 is space debris in LEO originally from a launch on Thu, 25 Feb 1971 UTC launched from the Tyuratam Missile And Space Complex (TTMTR). Debris objects in space refer to the collection of defunct objects orbiting the Earth. Examples of debris include non-operational satellites, rocket bodies, and fragments generated from explosions, collisions, or faulty payload assembly.

Loading next visibility...
Identifier
6844, 1971-015CL
Orbit
LEO
Country
Flag of CISCIS
Related business
Manufacturer
Unknown
Mission
Spacecraft
Bus & Motor
Unknown
Mass
Unknown
Launch date (UTC)
1971-02-25 (55 years ago)
Launch vehicle
Unknown
Launch site
Tyuratam Missile And Space Complex (TTMTR)
Object type
Payload
Rocket body
Debris
Shape & HBR
Unknown shape, 0.1 m
Radar Cross Section
Small (<0.1 m²)

Expand to show TLE details & history
Last TLE update: 3 days ago

TLE from 3 days ago
0 COSMOS 397 DEB
1 06844U 71015CL  25346.56117488  .00003794  00000-0  94938-3 0  9995
2 06844  65.8983 323.1657 0573351 211.3641 145.2029 13.84105359594732
Epoch: 2025-12-12T13:28Z
TLE epoch observation values (Epoch: 2025-12-12T13:28:05.509Z)
Latitude
Longitude
39.64172°
Altitude
1,303.707 km
Speed
7.03 km/s
True Right ascension
21h 32m 39s
True Declination
0° 00' 00"
Sunlit
Object was in daylight at epoch
Visualization orbit readout
Latitude
Unknown
Longitude
Unknown
Altitude
Unknown
Speed
Unknown
Apparent Right ascension
Unknown
Apparent Declination
Unknown
Sunlit
N/A
Visualization observer readout
Local Sidereal Time
13:18:52
Azimuth
Unknown
Elevation
Unknown
Doppler factor
Unknown
Orbital elements
Apogee altitude
1,367.894 km
Perigee altitude
527.82 km
Semi-major axis
7,325.994 km
Eccentricity
0.05734
Inclination
65.8983°
RAAN
323.1657°
Arg. of periapsis
211.3641°
True anomaly
148.74123°
Mean anomaly
145.2029°
Eccentric anomaly
146.99244°
Mean motion
3.46133 °/min
Orbital period
104.01 mins
BSTAR
0.00094938
Loading maneuver chart data...
Computing Atmospheric mass density...
Loading historical data...
Loading historical data...
Loading historical data...
Loading historical data...
Loading historical data...
Loading historical data...
Loading historical data...

Documentation

Showing up to 5 results
|